| time (UTC) | temp F | wind direction | speed MPH | gust MPH | rain 1hr in | rain 24hr in | rain mn in | humidity % | barometer mb |
| 20260901123603 | 74 | 188 | 2.0 | 4.0 | 0.00 | 0.00 | 0.00 | 97 | 1045.9 |
| 20260901122703 | 73 | 195 | 2.0 | 4.0 | 0.00 | 0.00 | 0.00 | 97 | 1046.0 |
| 20260901121803 | 73 | 184 | 2.0 | 4.0 | 0.00 | 0.00 | 0.00 | 98 | 1045.7 |
| 20260901120903 | 73 | 183 | 2.0 | 4.0 | 0.00 | 0.00 | 0.00 | 98 | 1045.8 |
| 20260901120003 | 73 | 196 | 1.0 | 4.0 | 0.00 | 0.00 | 0.00 | 98 | 1045.7 |
| 20260901115403 | 73 | 197 | 1.0 | 3.0 | 0.00 | 0.00 | 0.00 | 98 | 1045.4 |
| 20260901114503 | 73 | 201 | 1.0 | 3.0 | 0.00 | 0.01 | 0.00 | 98 | 1045.4 |
| 20260901113603 | 73 | 174 | 1.0 | 3.0 | 0.00 | 0.01 | 0.00 | 98 | 1045.4 |
| 20260901112703 | 73 | 185 | 2.0 | 5.0 | 0.00 | 0.01 | 0.00 | 98 | 1045.2 |
| 20260901112013 | 73 | 189 | 2.0 | 5.0 | 0.00 | 0.01 | 0.00 | 98 | 1045.3 |
| 20260901111112 | 73 | 181 | 1.0 | 4.0 | 0.00 | 0.01 | 0.00 | 98 | 1045.1 |
| 20260901110003 | 73 | 157 | 1.0 | 4.0 | 0.00 | 0.01 | 0.00 | 98 | 1044.9 |
| 20260901105613 | 73 | 140 | 1.0 | 3.0 | 0.00 | 0.01 | 0.00 | 98 | 1044.7 |
| 20260901104713 | 73 | 182 | 2.0 | 4.0 | 0.00 | 0.01 | 0.00 | 98 | 1044.7 |
| 20260901103603 | 73 | 128 | 1.0 | 3.0 | 0.00 | 0.01 | 0.00 | 98 | 1044.6 |
| 20260901102703 | 73 | 178 | 1.0 | 5.0 | 0.00 | 0.02 | 0.00 | 98 | 1044.9 |
| 20260901101803 | 73 | 168 | 2.0 | 5.0 | 0.00 | 0.02 | 0.00 | 97 | 1044.6 |
| 20260901100903 | 74 | 197 | 1.0 | 3.0 | 0.00 | 0.02 | 0.00 | 97 | 1044.6 |
| 20260901100003 | 74 | 175 | 1.0 | 3.0 | 0.00 | 0.02 | 0.00 | 96 | 1044.7 |
| 20260901095403 | 74 | 360 | 1.0 | 4.0 | 0.00 | 0.02 | 0.00 | 96 | 1044.7 |
| 20260901094503 | 74 | 195 | 2.0 | 5.0 | 0.00 | 0.02 | 0.00 | 96 | 1044.7 |
| 20260901093603 | 74 | 198 | 2.0 | 5.0 | 0.00 | 0.02 | 0.00 | 96 | 1044.7 |
| 20260901092703 | 74 | 184 | 1.0 | 4.0 | 0.00 | 0.02 | 0.00 | 96 | 1044.5 |
| 20260901092014 | 74 | 227 | 1.0 | 4.0 | 0.00 | 0.02 | 0.00 | 96 | 1044.6 |
| 20260901090903 | 74 | 186 | 2.0 | 4.0 | 0.00 | 0.02 | 0.00 | 96 | 1044.5 |
| 20260901090003 | 74 | 195 | 1.0 | 5.0 | 0.00 | 0.02 | 0.00 | 96 | 1044.6 |
| 20260901085615 | 74 | 208 | 1.0 | 5.0 | 0.00 | 0.02 | 0.00 | 96 | 1044.7 |
| 20260901084714 | 74 | 333 | 2.0 | 5.0 | 0.00 | 0.02 | 0.00 | 96 | 1044.4 |
| 20260901083603 | 74 | 192 | 1.0 | 4.0 | 0.00 | 0.02 | 0.00 | 96 | 1044.5 |
| 20260901082912 | 74 | 180 | 2.0 | 5.0 | 0.00 | 0.02 | 0.00 | 95 | 1044.6 |
| 20260901081803 | 74 | 181 | 3.0 | 8.0 | 0.00 | 0.02 | 0.00 | 95 | 1044.5 |
| 20260901080904 | 74 | 199 | 1.0 | 4.0 | 0.00 | 0.02 | 0.00 | 95 | 1044.5 |
| 20260901080003 | 74 | 1 | 2.0 | 6.0 | 0.00 | 0.02 | 0.00 | 94 | 1044.6 |
| 20260901075403 | 74 | 258 | 2.0 | 6.0 | 0.00 | 0.02 | 0.00 | 94 | 1044.7 |
| 20260901074503 | 74 | 204 | 3.0 | 6.0 | 0.00 | 0.02 | 0.00 | 94 | 1044.4 |
| 20260901073603 | 74 | 179 | 2.0 | 6.0 | 0.00 | 0.02 | 0.00 | 94 | 1044.6 |
| 20260901072703 | 75 | 191 | 3.0 | 6.0 | 0.00 | 0.02 | 0.00 | 94 | 1044.6 |
| 20260901071804 | 75 | 198 | 3.0 | 6.0 | 0.00 | 0.02 | 0.00 | 94 | 1044.5 |
| 20260901070903 | 75 | 204 | 2.0 | 3.0 | 0.00 | 0.02 | 0.00 | 94 | 1044.4 |
| 20260901070003 | 75 | 202 | 2.0 | 3.0 | 0.00 | 0.02 | 0.00 | 94 | 1044.3 |
| 20260901065614 | 75 | 201 | 2.0 | 3.0 | 0.00 | 0.02 | 0.00 | 94 | 1044.2 |
| 20260901064503 | 75 | 201 | 2.0 | 3.0 | 0.00 | 0.02 | 0.00 | 94 | 1044.3 |
| 20260901063603 | 75 | 205 | 2.0 | 3.0 | 0.00 | 0.02 | 0.00 | 93 | 1044.4 |
| 20260901062703 | 75 | 204 | 2.0 | 3.0 | 0.00 | 0.02 | 0.00 | 94 | 1044.4 |
| 20260901061803 | 75 | 201 | 2.0 | 3.0 | 0.00 | 0.02 | 0.00 | 94 | 1044.3 |
| 20260901061114 | 75 | 198 | 2.0 | 2.0 | 0.00 | 0.02 | 0.00 | 94 | 1044.3 |
| 20260901060003 | 75 | 202 | 1.0 | 2.0 | 0.00 | 0.02 | 0.00 | 93 | 1044.3 |
| 20260901055403 | 76 | 202 | 1.0 | 2.0 | 0.00 | 0.02 | 0.00 | 93 | 1044.4 |
| 20260901054503 | 76 | 200 | 1.0 | 2.0 | 0.00 | 0.02 | 0.00 | 93 | 1044.2 |
| 20260901053814 | 76 | 209 | 1.0 | 2.0 | 0.00 | 0.02 | 0.00 | 93 | 1044.3 |
| 20260901052913 | 76 | 204 | 1.0 | 2.0 | 0.00 | 0.02 | 0.00 | 93 | 1044.4 |
| 20260901051803 | 76 | 204 | 1.0 | 2.0 | 0.00 | 0.02 | 0.00 | 93 | 1044.2 |
| 20260901050903 | 76 | 208 | 2.0 | 3.0 | 0.00 | 0.02 | 0.00 | 93 | 1044.4 |
| 20260901050003 | 76 | 204 | 2.0 | 3.0 | 0.00 | 0.02 | 0.00 | 92 | 1044.3 |
| 20260901045403 | 76 | 201 | 2.0 | 3.0 | 0.00 | 0.02 | 0.02 | 92 | 1044.2 |
| 20260901044505 | 76 | 206 | 2.0 | 3.0 | 0.00 | 0.02 | 0.02 | 92 | 1044.4 |
| 20260901043603 | 76 | 204 | 2.0 | 3.0 | 0.00 | 0.02 | 0.02 | 92 | 1044.4 |
| 20260901042703 | 76 | 208 | 1.0 | 2.0 | 0.00 | 0.02 | 0.02 | 92 | 1044.7 |
| 20260901041803 | 76 | 209 | 2.0 | 2.0 | 0.00 | 0.02 | 0.02 | 92 | 1044.6 |
| 20260901041114 | 76 | 203 | 2.0 | 3.0 | 0.00 | 0.02 | 0.02 | 91 | 1044.5 |
| 20260901040003 | 76 | 203 | 2.0 | 3.0 | 0.00 | 0.02 | 0.02 | 91 | 1044.4 |
| 20260901035403 | 76 | 209 | 1.0 | 3.0 | 0.00 | 0.02 | 0.02 | 91 | 1044.5 |
| 20260901034503 | 76 | 213 | 1.0 | 2.0 | 0.00 | 0.02 | 0.02 | 91 | 1044.4 |
| 20260901033603 | 76 | 222 | 1.0 | 2.0 | 0.00 | 0.02 | 0.02 | 91 | 1044.6 |
| 20260901032703 | 77 | 242 | 0.0 | 1.0 | 0.00 | 0.02 | 0.02 | 90 | 1044.8 |
| 20260901031803 | 77 | 236 | 0.0 | 1.0 | 0.00 | 0.02 | 0.02 | 89 | 1044.5 |
| 20260901030903 | 78 | 214 | 0.0 | 2.0 | 0.00 | 0.02 | 0.02 | 88 | 1044.5 |
| 20260901030003 | 78 | 194 | 1.0 | 3.0 | 0.00 | 0.02 | 0.02 | 88 | 1044.6 |
| 20260901025403 | 78 | 191 | 2.0 | 3.0 | 0.00 | 0.02 | 0.02 | 88 | 1044.8 |
| 20260901024503 | 78 | 206 | 1.0 | 3.0 | 0.00 | 0.02 | 0.02 | 88 | 1044.7 |
| 20260901023603 | 79 | 187 | 2.0 | 4.0 | 0.00 | 0.02 | 0.02 | 86 | 1044.6 |
| 20260901022703 | 79 | 181 | 2.0 | 3.0 | 0.00 | 0.02 | 0.02 | 86 | 1044.8 |
| 20260901021803 | 78 | 160 | 1.0 | 3.0 | 0.00 | 0.03 | 0.02 | 89 | 1044.6 |
| 20260901021113 | 78 | 273 | 0.0 | 2.0 | 0.00 | 0.03 | 0.02 | 88 | 1044.9 |
| 20260901020214 | 79 | 281 | 0.0 | 1.0 | 0.00 | 0.03 | 0.02 | 87 | 1044.8 |
| 20260901015403 | 79 | 11 | 0.0 | 2.0 | 0.00 | 0.03 | 0.02 | 87 | 1044.8 |
| 20260901014503 | 79 | 28 | 0.0 | 2.0 | 0.00 | 0.03 | 0.02 | 87 | 1044.6 |
| 20260901013603 | 79 | 179 | 1.0 | 6.0 | 0.00 | 0.04 | 0.02 | 86 | 1044.4 |
| 20260901012703 | 80 | 171 | 3.0 | 5.0 | 0.00 | 0.04 | 0.02 | 86 | 1044.3 |
| 20260901011803 | 80 | 171 | 3.0 | 5.0 | 0.00 | 0.04 | 0.02 | 86 | 1044.2 |
| 20260901010903 | 80 | 179 | 2.0 | 5.0 | 0.00 | 0.05 | 0.02 | 86 | 1044.1 |
| 20260901010003 | 80 | 176 | 3.0 | 6.0 | 0.00 | 0.05 | 0.02 | 86 | 1043.9 |
| 20260901005403 | 80 | 182 | 2.0 | 5.0 | 0.00 | 0.06 | 0.02 | 86 | 1044.0 |
| 20260901004503 | 81 | 169 | 0.0 | 2.0 | 0.00 | 0.06 | 0.02 | 85 | 1044.2 |
| 20260901003603 | 82 | 169 | 1.0 | 3.0 | 0.00 | 0.06 | 0.02 | 83 | 1044.4 |
| 20260901002703 | 82 | 190 | 1.0 | 3.0 | 0.00 | 0.06 | 0.02 | 83 | 1044.2 |
| 20260901002013 | 82 | 184 | 1.0 | 3.0 | 0.00 | 0.06 | 0.02 | 82 | 1044.2 |
| 20260901000903 | 83 | 219 | 0.0 | 2.0 | 0.00 | 0.06 | 0.02 | 83 | 1043.9 |
| 20260901000003 | 83 | 238 | 0.0 | 2.0 | 0.00 | 0.06 | 0.02 | 83 | 1043.9 |
| 20260831235613 | 83 | 221 | 1.0 | 3.0 | 0.00 | 0.06 | 0.02 | 82 | 1043.8 |
| 20260831234713 | 83 | 213 | 2.0 | 4.0 | 0.00 | 0.06 | 0.02 | 82 | 1043.5 |
| 20260831233603 | 84 | 195 | 1.0 | 5.0 | 0.00 | 0.06 | 0.02 | 81 | 1043.3 |
| 20260831232703 | 84 | 186 | 4.0 | 8.0 | 0.00 | 0.06 | 0.02 | 81 | 1042.9 |
| 20260831231804 | 84 | 183 | 4.0 | 8.0 | 0.00 | 0.06 | 0.02 | 81 | 1042.2 |
| 20260831230903 | 83 | 208 | 2.0 | 4.0 | 0.00 | 0.06 | 0.02 | 81 | 1044.0 |
| 20260831230213 | 83 | 254 | 1.0 | 4.0 | 0.00 | 0.06 | 0.02 | 83 | 1044.4 |
| 20260831225613 | 84 | 258 | 1.0 | 2.0 | 0.00 | 0.06 | 0.02 | 83 | 1044.6 |
| 20260831224503 | 84 | 218 | 2.0 | 3.0 | 0.00 | 0.06 | 0.02 | 80 | 1043.8 |
| 20260831223603 | 85 | 218 | 2.0 | 4.0 | 0.00 | 0.06 | 0.02 | 79 | 1043.5 |
| 20260831222703 | 85 | 194 | 2.0 | 3.0 | 0.00 | 0.07 | 0.02 | 81 | 1043.4 |
| 20260831221803 | 85 | 240 | 1.0 | 2.0 | 0.00 | 0.07 | 0.02 | 78 | 1043.7 |
| 20260831220903 | 86 | 230 | 1.0 | 4.0 | 0.00 | 0.08 | 0.02 | 75 | 1043.7 |
| 20260831220003 | 85 | 221 | 2.0 | 4.0 | 0.00 | 0.08 | 0.02 | 74 | 1043.8 |
| 20260831215403 | 85 | 225 | 2.0 | 4.0 | 0.00 | 0.08 | 0.02 | 73 | 1043.8 |
| 20260831214503 | 86 | 219 | 2.0 | 5.0 | 0.00 | 0.08 | 0.02 | 72 | 1043.5 |
| 20260831213603 | 86 | 203 | 3.0 | 5.0 | 0.00 | 0.08 | 0.02 | 72 | 1043.5 |
| 20260831212912 | 87 | 181 | 3.0 | 7.0 | 0.00 | 0.08 | 0.02 | 70 | 1043.3 |
| 20260831211803 | 86 | 195 | 3.0 | 8.0 | 0.00 | 0.08 | 0.02 | 71 | 1043.3 |
| 20260831210903 | 86 | 189 | 3.0 | 8.0 | 0.00 | 0.08 | 0.02 | 72 | 1043.0 |
| 20260831210003 | 86 | 157 | 5.0 | 12.0 | 0.00 | 0.08 | 0.02 | 71 | 1042.9 |
| 20260831205403 | 87 | 168 | 4.0 | 12.0 | 0.00 | 0.08 | 0.02 | 71 | 1043.3 |
| 20260831204713 | 88 | 169 | 3.0 | 7.0 | 0.00 | 0.09 | 0.02 | 71 | 1043.2 |
| 20260831203603 | 88 | 187 | 2.0 | 6.0 | 0.00 | 0.09 | 0.02 | 68 | 1043.4 |
| 20260831202703 | 88 | 219 | 2.0 | 6.0 | 0.00 | 0.09 | 0.02 | 68 | 1043.6 |
| 20260831201803 | 87 | 200 | 2.0 | 4.0 | 0.00 | 0.09 | 0.02 | 73 | 1043.9 |
| 20260831201113 | 87 | 192 | 1.0 | 3.0 | 0.00 | 0.09 | 0.02 | 73 | 1043.8 |
| 20260831200003 | 86 | 214 | 2.0 | 5.0 | 0.00 | 0.09 | 0.02 | 71 | 1044.2 |
| 20260831195614 | 86 | 225 | 2.0 | 5.0 | 0.00 | 0.09 | 0.02 | 70 | 1044.1 |
| 20260831194503 | 86 | 228 | 2.0 | 6.0 | 0.00 | 0.09 | 0.02 | 70 | 1044.1 |
| 20260831193603 | 86 | 202 | 3.0 | 6.0 | 0.00 | 0.10 | 0.02 | 70 | 1043.9 |
| 20260831192703 | 86 | 207 | 4.0 | 8.0 | 0.00 | 0.10 | 0.02 | 71 | 1043.9 |
| 20260831191803 | 84 | 198 | 3.0 | 6.0 | 0.00 | 0.11 | 0.02 | 73 | 1043.7 |
| 20260831190903 | 85 | 203 | 4.0 | 8.0 | 0.00 | 0.11 | 0.02 | 69 | 1043.9 |
| 20260831190003 | 86 | 203 | 4.0 | 8.0 | 0.00 | 0.11 | 0.02 | 66 | 1043.8 |
| 20260831185403 | 86 | 204 | 5.0 | 9.0 | 0.00 | 0.11 | 0.02 | 66 | 1044.0 |
| 20260831184503 | 87 | 208 | 4.0 | 10.0 | 0.00 | 0.11 | 0.02 | 63 | 1044.1 |
| 20260831183814 | 87 | 205 | 4.0 | 10.0 | 0.00 | 0.11 | 0.02 | 63 | 1044.2 |
| 20260831182703 | 86 | 209 | 5.0 | 11.0 | 0.00 | 0.12 | 0.02 | 64 | 1044.1 |
| 20260831181803 | 86 | 203 | 5.0 | 11.0 | 0.00 | 0.12 | 0.02 | 64 | 1044.1 |
| 20260831180903 | 85 | 195 | 5.0 | 10.0 | 0.00 | 0.12 | 0.02 | 65 | 1044.0 |
| 20260831180003 | 86 | 199 | 6.0 | 12.0 | 0.00 | 0.12 | 0.02 | 63 | 1044.2 |
| 20260831175403 | 86 | 200 | 6.0 | 12.0 | 0.00 | 0.12 | 0.02 | 65 | 1044.1 |
| 20260831174503 | 86 | 187 | 7.0 | 14.0 | 0.00 | 0.12 | 0.02 | 63 | 1044.1 |
| 20260831173603 | 85 | 190 | 6.0 | 11.0 | 0.00 | 0.12 | 0.02 | 65 | 1044.3 |
| 20260831172703 | 84 | 193 | 6.0 | 14.0 | 0.00 | 0.12 | 0.02 | 68 | 1044.4 |
| 20260831171803 | 83 | 191 | 5.0 | 14.0 | 0.00 | 0.12 | 0.02 | 67 | 1044.6 |
| 20260831170903 | 83 | 188 | 5.0 | 12.0 | 0.00 | 0.12 | 0.02 | 67 | 1044.8 |
| 20260831170003 | 83 | 196 | 5.0 | 13.0 | 0.00 | 0.12 | 0.02 | 68 | 1044.8 |
| 20260831165403 | 82 | 186 | 5.0 | 13.0 | 0.00 | 0.12 | 0.02 | 68 | 1044.9 |
| 20260831164503 | 81 | 172 | 6.0 | 14.0 | 0.00 | 0.12 | 0.02 | 69 | 1045.1 |
| 20260831163603 | 81 | 179 | 5.0 | 14.0 | 0.00 | 0.12 | 0.02 | 69 | 1045.0 |
| 20260831162703 | 80 | 177 | 6.0 | 13.0 | 0.00 | 0.12 | 0.02 | 71 | 1044.8 |
| 20260831161803 | 80 | 175 | 6.0 | 14.0 | 0.00 | 0.12 | 0.02 | 71 | 1044.9 |
| 20260831160903 | 79 | 176 | 6.0 | 15.0 | 0.00 | 0.12 | 0.02 | 72 | 1045.0 |
| 20260831160003 | 78 | 175 | 5.0 | 11.0 | 0.00 | 0.12 | 0.02 | 73 | 1045.0 |
| 20260831155403 | 78 | 175 | 4.0 | 9.0 | 0.00 | 0.12 | 0.02 | 74 | 1045.2 |
| 20260831154503 | 78 | 179 | 5.0 | 10.0 | 0.00 | 0.12 | 0.02 | 74 | 1045.1 |
| 20260831153603 | 77 | 174 | 4.0 | 9.0 | 0.00 | 0.12 | 0.02 | 76 | 1045.2 |
| 20260831152703 | 76 | 176 | 4.0 | 11.0 | 0.00 | 0.12 | 0.02 | 78 | 1045.3 |
| 20260831151803 | 76 | 173 | 4.0 | 9.0 | 0.00 | 0.12 | 0.02 | 77 | 1045.2 |
| 20260831150903 | 75 | 178 | 4.0 | 8.0 | 0.00 | 0.12 | 0.02 | 79 | 1045.2 |
| 20260831150003 | 75 | 174 | 4.0 | 7.0 | 0.00 | 0.12 | 0.02 | 80 | 1045.6 |
| 20260831145403 | 75 | 175 | 4.0 | 9.0 | 0.00 | 0.12 | 0.02 | 81 | 1045.2 |
| 20260831144503 | 74 | 174 | 4.0 | 10.0 | 0.00 | 0.12 | 0.02 | 81 | 1045.2 |
| 20260831143603 | 74 | 174 | 3.0 | 8.0 | 0.00 | 0.12 | 0.02 | 82 | 1045.1 |
| 20260831142703 | 74 | 171 | 4.0 | 10.0 | 0.00 | 0.12 | 0.02 | 82 | 1045.2 |
| 20260831141803 | 73 | 175 | 4.0 | 11.0 | 0.00 | 0.12 | 0.02 | 82 | 1045.2 |
| 20260831140903 | 73 | 179 | 3.0 | 7.0 | 0.00 | 0.12 | 0.02 | 84 | 1044.9 |
| 20260831140003 | 72 | 179 | 3.0 | 7.0 | 0.00 | 0.12 | 0.02 | 85 | 1045.0 |
| 20260831135403 | 72 | 176 | 3.0 | 7.0 | 0.00 | 0.12 | 0.02 | 84 | 1045.0 |
| 20260831134503 | 72 | 177 | 4.0 | 7.0 | 0.00 | 0.12 | 0.02 | 85 | 1045.1 |
| 20260831133603 | 72 | 179 | 3.0 | 8.0 | 0.00 | 0.12 | 0.02 | 85 | 1045.1 |
| 20260831132703 | 71 | 173 | 3.0 | 7.0 | 0.00 | 0.12 | 0.02 | 85 | 1045.1 |
| 20260831131803 | 71 | 172 | 3.0 | 7.0 | 0.00 | 0.12 | 0.02 | 84 | 1045.2 |
| 20260831131114 | 71 | 171 | 4.0 | 7.0 | 0.00 | 0.12 | 0.02 | 84 | 1045.1 |
| 20260831130003 | 71 | 173 | 3.0 | 6.0 | 0.00 | 0.12 | 0.02 | 84 | 1045.0 |
| 20260831125403 | 71 | 177 | 3.0 | 6.0 | 0.00 | 0.12 | 0.02 | 85 | 1045.0 |
| 20260831124712 | 71 | 171 | 3.0 | 7.0 | 0.01 | 0.12 | 0.02 | 85 | 1045.0 |